Tracking 18852 objects as of 24-Nov-2017
HD Live streaming from Space Station
objects crossing your sky now

COSMOS 1758

Track COSMOS 1758 now!
10-day predictions
COSMOS 1758 is classified as:


NORAD ID: 16791
Int'l Code: 1986-046A
Perigee: 549.6 km
Apogee: 570.3 km
Inclination: 82.5 °
Period: 95.7 minutes
Semi major axis: 6930 km
RCS: 7.362 m2 (large)
Launch date: June 12, 1986
Source: Commonwealth of Independent States (former USSR) (CIS)
Launch site: PLESETSK MISSILE AND SPACE COMPLEX (PKMTR)
aabbcc
Your satellite tracking list
Your tracking list is empty




NASA's NSSDC Master Catalog

Two Line Element Set (TLE):
1 16791U 86046A   17327.29247887  .00000921  00000-0  63572-4 0  9994
2 16791  82.4719 237.0364 0014954 268.5715  91.3798 15.04569118709608
Source of the keplerian elements: AFSPC